Погода Николаевск-
на-Амуре

Погода Николаевск-
на-Амуре : погода сейчас, прогноз погоды и архив. Всё, что Вы хотите узнать о погоде Николаевск-
на-Амуре!

Хотите узнать прогноз погоды Николаевск-
на-Амуре? Тогда Вам сюда: Погода Николаевск-
на-Амуре

Поиск расширенной информации на нашем сайте:

Другие новости

Новости СМИ2

Главная страница сайта

Новости сайта

02.10.2013

Напоминаем, что на нашем новом сайте вы можете получить высокодетализированные прогнозы погоды по пунктам России, СНГ и мира (включающие важные для авиации метеовеличины, такие как направление и скорость ветра, видимость, явления погоды, количество и форма облачности, нижняя и верхняя граница облачности), а также ознакомиться с разнообразными материалами по авиационной метеорологии и подборкой полезных ссылок на эту тему.

Сайт Метеоцентр.Азия посвящён разработке технологий оптимизации авиаметеорологического обслуживания, включая проектирование и перспективное создание нескольких автоматизированных авиаметеорологических систем:
- система выпуска высокодетальных прогностических карт явлений погоды для нижнего воздушного пространства по России и ближнему зарубежью;
- система верификации прогнозов TAF (выпускаемых синоптиками официальных АМСГ РФ и ближнего зарубежья) и AUTOTAF (выпускаемых сайтом Метеоцентр.Азия) - выявление ошибок, онлайн-сопоставление с фактической погодой METAR, автоматическое внесение коррективов в прогнозы при резком отклонении фактической погоды от прогноза, подсчёт оправдываемости прогнозов по элементам и в целом;
- система обработки, анализа и отображения авиаметеорологической информации для применения провайдерами метеорологической информации.

Рекомендуем: Скорый ремонт компьютеров люблино выезжает в любой район.

Погода Николаевск-
на-Амуре - сегодня

Время (UTC), дата Ветер
(°,м/с) 
Видим.   Явления Облачность Т
(°С)
Тd
(°С)
f(%) Тe
(°С)
Pmin
(гПа)
dP
(гПа)
Po
(мм)
O2
(г/м3)
Тmin Tmax R s Состояние
почвы
21 25.05.17 090 (В) 20000 м    ясно 
+9.4 +2.9 64 +9  1007.7  -0.9  752  292  +1.6        мокрая 
00 26.05.17 050 (СВ) 20000 м    ясно 
+14.9 +4.6 50 +16  1006.2  1.5  751  286           
03 26.05.17 100 (В) 20000 м    ясно 
+17.5 +6.5 48 +18  1005  -9.2  750  283           
06 26.05.17 110 (В) 20000 м    4/3 600 м средняя, верхняя 
[Cu hum|Ac inh|Cc]
+16.7 +8.1 57 +17  1003.7  -1.3  749  283           
09 26.05.17 100 (В) 20000 м    8/5 600 м верхняя 
[Sc|Cc]
+15.1 +9.3 68 +15  1003.9  0.2  749  284    +17.8       
12 26.05.17 080 (В) 20000 м    4/4 600 м 
[Sc]
+12.8 +7.1 68 +14    1.6  750  288           
15 26.05.17 020 (С) 20000 м    3/3 600 м 
[Sc]
+8.1 +3.8 74 +9  1006  0.3  750  293           
18 26.05.17 тихо ()   20000 м    3/0 верхняя 
[Ci fib]
+6 +3.2 82 +6  1006.3  0.3  751  295           
00 27.05.17 110 (В) 20000 м    6/0 верхняя 
[Ci fib]
+17.3 +9 58 +18  1006.2  -0.3  751  283           
03 27.05.17 100 (В) 20000 м    6/0 верхняя 
[Ci fib]
+19.2 +9.3 53 +20  1005.2  -0.9  750  281           
06 27.05.17 100 (В) 20000 м    8/0 верхняя 
[Ci fib]
+19 +9.3 53 +19  1003.7  -1.5  749  280           
12 27.05.17 090 (В) 20000 м    4/0 средняя 
[Ac trans]
+12.9 +9.3 79 +12  1003.6  0.5  749  286           
15 27.05.17 080 (В) 20000 м    3/0 средняя 
[Ac trans]
+11.8 +9.4 85 +12  1003  -0.6  748  287           
18 27.05.17 080 (В) 20000 м    1/0 верхняя 
[Ci fib]
+10.3 +8.4 88 +10  1002.6  -0.5  748  289           
00 28.05.17 110 (В) 20000 м    10/0 верхняя 
[Cs]
+17.9 +8.4 54 +18  1000.7  -1  747  281           
03 28.05.17 100 (В) 20000 м    8/0 верхняя 
[Ci fib]
+19.5 +9 51 +20  999.1  -1.6  745  279           
06 28.05.17 100 (В) 20000 м    3/1 1000 м верхняя 
[Sc|Ci sp]
+19.9 +8.3 47 +20  997  -2.1  744  278           
09 28.05.17 110 (В) 6-10{11}  20000 м    4/0 средняя, верхняя 
[Ac trans|Ci sp]
+17.2 +8 55 +17  995.7  -1.4  743  280    +20.5       
12 28.05.17 090 (В) 4{11}  20000 м    3/0 верхняя 
[Ci sp]
+13.5 +8.9 74 +13  996.7  743  284           
15 28.05.17 100 (В) 20000 м    ясно 
+11.9 +9.1 83 +11  996.2  -0.5  743  285           
18 28.05.17 100 (В) 5{11}  20000 м    4/0 средняя 
[Ac lent]
+11 +7.7 80 +10  995.7  -0.6  743  286           
06 29.05.17 090 (В) 4{15}  20000 м    10/10 600 м кучево-дожд. 
[Cb cap]
+14.8 +9 68 +15  995.2  1.2  742  282           
12 29.05.17 350 (С) 20000 м    10/10 600 м кучево-дожд. 
[Cb cap]
+11.2 +9.1 87 +11  1000  2.9  746  287           
15 29.05.17 010 (С) 20000 м    10/8 600 м средняя 
[Sc|Ac As]
+8.7 +5.1 78 +9  1000.9  0.9  747  291           
18 29.05.17 020 (С) 20000 м    4/3 600 м верхняя 
[Sc|Ci fib]
+5.2 +3.6 89 +6  1001.7  -0.4  747  295           
Время (UTC), дата Ветер
(°,м/с) 
Видим.   Явления Облачность Т
(°С)
Тd
(°С)
f(%) Тe
(°С)
Pmin
(гПа)
dP
(гПа)
Po
(мм)
O2
(г/м3)
Тmin Tmax R s Состояние
почвы

Для получения пояснительной информации подведите курсор к названию столбца.

ПОГОДА Николаевск-
на-Амуре - архив

Всё, что Вы хотите узнать о погоде Николаевск-
на-Амуре - удобно и подробно!

Выберите нужную дату (начиная с 1 января 2015* года) и нажмите кнопку "Найти".
Будут отображены архивные сводки погоды по пункту Николаевск-
на-Амуре, начиная с указанной даты.


Отображать данные в формате CSV (для использования в таблицах Excel)


Внимание! Наш архив погоды предназначен исключительно для личного некоммерческого использования в познавательных целях. Если Вам необходимы официальные справки о состоянии погоды (для производственных, юридических, коммерческих и т.п. целей), обращайтесь в органы Росгидромета.

*Примечание: данная дата относится к архиву по метеостанциям СССР (Россия, СНГ, Балтия).
Архив по метеостанциям Зарубежной Европы и Азии (кроме Китая) хранится 10 дней, по другим регионам земного шара (Китай, Африка, Америка, Австралия, Океания) - 1 день.

Николаевск-
на-Амуре - район местоположения метеостанции


Название, широта, долгота, высота метеостанции:
Николаевск-на-Амуре 53.2°ш. 140.7°д. 68 м над ур. моря [Российская Федерация]

Дополнительная информация

В oтличие oт бoльшинства пoгoдных сайтoв мы публикуем пoдрoбную метеoинфoрмацию в детальнoм прoфессиoнальнoм фoрмате.

Характеристики температуры и влажнoсти вoздуха измеряются на высoте 2 м в тени вдали oт зданий и деревьев.
Скoрoсть ветра измеряется на высoте 10 м (на урoвне рoста челoвека скoрoсть ветра ниже в 1.5-2 раза). Если метеoстанция нахoдится в гoрoде или в лесу, тo скoрoсть ветра занижена на 2-4 м/с пo сравнению с oткрытым местoм. Скoрoсть ветра над акватoриями крупных рек и oзёр, а также на вершинах хoлмoв на 2-5 м/с выше, чем в oбычных услoвиях.
Атмoсфернoе давление в разных тoчках местнoсти мoжет значительнo oтличаться oт давления на метеoстанции, в зависимoсти oт услoвий рельефа (при пoдъёме на 10 м давление пoнижается примернo на 1 мм рт.ст.).